Fort Meade, MD

1:23 AM EDT on August 19, 2017 (GMT -0400)
Tipton

Weather History for KFME - May, 2012

Change the Weather History Date:

Wednesday, May 2, 2012

  Actual Average (KBWI) Record (KBWI)
Temperature  
Mean Temperature 62 °F -  
Max Temperature 68 °F 71 °F 88 °F (1951)
Min Temperature 55 °F 49 °F 36 °F (1978)
Degree Days  
Heating Degree Days 4    
Growing Degree Days 12 (Base 50)    
Moisture  
Dew Point 55 °F    
Average Humidity 83    
Maximum Humidity 94    
Minimum Humidity 64    
Precipitation  
Precipitation 0.00 in - - ()
Sea Level Pressure  
Sea Level Pressure 30.09 in    
Wind  
Wind Speed 3 mph (ENE)    
Max Wind Speed 12 mph    
Max Gust Speed -    
Visibility 7 miles    
Events      
Averages and records for this station are not official NWS values.
T = Trace of Precipitation, MM = Missing Value Source: NWS Daily Summary

Daily Weather History Graph

Daily Weather History Graph

Search for Another Location

Airport or City:

Trip Planner

Search our weather history database for the weather conditions in past years. The results will help you decide how hot, cold, wet, or windy it might be!

Date:

Astronomy

May. 02, 2012 Rise Set
Actual Time 6:07 AM EDT 8:01 PM EDT
Civil Twilight 5:38 AM EDT 8:30 PM EDT
Nautical Twilight 5:02 AM EDT 9:05 PM EDT
Astronomical Twilight 4:25 AM EDT 9:43 PM EDT
Moon 4:13 PM EDT (5/2) 3:34 AM EDT (5/2)
Length of Visible Light 14h 52m
Length of Day
13h 54m
Waxing Gibbous, 83% of the Moon is Illuminated
May 2
Waxing Gibbous
May 5
Full
May 12
Last Quarter
May 20
New
May 28
First Quarter

Hourly Weather History & Observations

Time (EDT) Temp. Dew Point Humidity Pressure Visibility Wind Dir Wind Speed Gust Speed Precip Events Conditions
12:03 AM 59.0 °F 55.4 °F 88% 30.03 in 5.0 mi Calm Calm - N/A   Clear
12:24 AM 57.2 °F 55.4 °F 94% 30.03 in 3.0 mi Calm Calm - N/A   Clear
12:48 AM 57.2 °F 55.4 °F 94% 30.03 in 5.0 mi Calm Calm - N/A   Scattered Clouds
1:09 AM 57.2 °F 55.4 °F 94% 30.02 in 5.0 mi Calm Calm - N/A   Scattered Clouds
1:30 AM 57.2 °F 55.4 °F 94% 30.02 in 5.0 mi Calm Calm - N/A   Scattered Clouds
1:51 AM 57.2 °F 55.4 °F 94% 30.01 in 5.0 mi Calm Calm - N/A   Scattered Clouds
2:12 AM 57.2 °F 55.4 °F 94% 30.00 in 5.0 mi Calm Calm - N/A   Clear
2:33 AM 57.2 °F 55.4 °F 94% 30.00 in 5.0 mi Calm Calm - N/A   Clear
2:54 AM 57.2 °F 55.4 °F 94% 30.00 in 7.0 mi Calm Calm - N/A   Clear
4:00 AM 57.2 °F 55.4 °F 94% 30.00 in 5.0 mi Calm Calm - N/A   Clear
4:21 AM 57.2 °F 55.4 °F 94% 30.00 in 7.0 mi Calm Calm - N/A   Clear
4:42 AM 57.2 °F 55.4 °F 94% 30.00 in 5.0 mi Calm Calm - N/A   Clear
5:03 AM 57.2 °F 55.4 °F 94% 30.03 in 7.0 mi Calm Calm - N/A   Scattered Clouds
5:24 AM 60.8 °F 59.0 °F 94% 30.02 in 5.0 mi ENE 4.6 mph - N/A   Scattered Clouds
5:45 AM 60.8 °F 59.0 °F 94% 30.03 in 5.0 mi Calm Calm - N/A   Mostly Cloudy
6:06 AM 60.8 °F 59.0 °F 94% 30.03 in 5.0 mi NE 3.5 mph - N/A   Overcast
6:27 AM 60.8 °F 59.0 °F 94% 30.03 in 4.0 mi NE 3.5 mph - N/A   Overcast
6:48 AM 60.8 °F 59.0 °F 94% 30.04 in 2.5 mi ENE 6.9 mph - N/A   Overcast
7:12 AM 60.8 °F 59.0 °F 94% 30.06 in 2.0 mi NE 5.8 mph - N/A   Overcast
7:33 AM 60.8 °F 59.0 °F 94% 30.06 in 2.0 mi ENE 5.8 mph - N/A   Overcast
7:54 AM 60.8 °F 59.0 °F 94% 30.08 in 2.0 mi NE 5.8 mph - N/A   Overcast
8:15 AM 60.8 °F 59.0 °F 94% 30.08 in 2.0 mi ENE 5.8 mph - N/A   Overcast
8:36 AM 60.8 °F 57.2 °F 88% 30.09 in 2.5 mi ENE 5.8 mph - N/A   Overcast
8:57 AM 60.8 °F 57.2 °F 88% 30.09 in 2.5 mi NE 4.6 mph - N/A   Overcast
9:18 AM 60.8 °F 57.2 °F 88% 30.11 in 3.0 mi NNE 3.5 mph - N/A   Overcast
9:39 AM 60.8 °F 55.4 °F 82% 30.11 in 4.0 mi ENE 5.8 mph - N/A   Overcast
10:00 AM 60.8 °F 55.4 °F 82% 30.10 in 5.0 mi East 5.8 mph - N/A   Overcast
10:21 AM 62.6 °F 55.4 °F 77% 30.10 in 7.0 mi ENE 4.6 mph - N/A   Overcast
10:45 AM 62.6 °F 55.4 °F 77% 30.11 in 7.0 mi Calm Calm - N/A   Overcast
11:27 AM 62.6 °F 55.4 °F 77% 30.12 in 7.0 mi East 6.9 mph - N/A   Overcast
11:48 AM 62.6 °F 55.4 °F 77% 30.13 in 7.0 mi ENE 5.8 mph - N/A   Overcast
12:09 PM 64.4 °F 55.4 °F 73% 30.12 in 10.0 mi ENE 5.8 mph - N/A   Mostly Cloudy
12:30 PM 64.4 °F 55.4 °F 73% 30.12 in 7.0 mi ENE 8.1 mph - N/A   Scattered Clouds
12:51 PM 64.4 °F 55.4 °F 73% 30.12 in 10.0 mi NE 8.1 mph - N/A   Clear
1:12 PM 66.2 °F 55.4 °F 68% 30.12 in 7.0 mi East 8.1 mph - N/A   Clear
1:33 PM 68.0 °F 55.4 °F 64% 30.12 in 7.0 mi East 8.1 mph - N/A   Clear
1:54 PM 66.2 °F 55.4 °F 68% 30.11 in 7.0 mi ENE 5.8 mph - N/A   Clear
2:15 PM 66.2 °F 55.4 °F 68% 30.11 in 10.0 mi ENE 6.9 mph - N/A   Clear
2:39 PM 66.2 °F 55.4 °F 68% 30.11 in 10.0 mi ENE 8.1 mph - N/A   Clear
3:00 PM 66.2 °F 55.4 °F 68% 30.11 in 10.0 mi East 11.5 mph - N/A   Clear
3:21 PM 66.2 °F 55.4 °F 68% 30.10 in 10.0 mi NE 6.9 mph - N/A   Clear
3:42 PM 64.4 °F 55.4 °F 73% 30.11 in 10.0 mi East 9.2 mph - N/A   Mostly Cloudy
4:03 PM 66.2 °F 55.4 °F 68% 30.11 in 10.0 mi ENE 5.8 mph - N/A   Mostly Cloudy
4:45 PM 64.4 °F 55.4 °F 73% 30.11 in 10.0 mi NE 8.1 mph - N/A   Scattered Clouds
5:06 PM 64.4 °F 55.4 °F 73% 30.11 in 10.0 mi ENE 10.4 mph - N/A   Clear
5:48 PM 62.6 °F 53.6 °F 72% 30.12 in 10.0 mi East 10.4 mph - N/A   Mostly Cloudy
6:09 PM 62.6 °F 53.6 °F 72% 30.13 in 10.0 mi East 8.1 mph - N/A   Mostly Cloudy
6:33 PM 62.6 °F 53.6 °F 72% 30.12 in 10.0 mi ESE 8.1 mph - N/A   Overcast
6:54 PM 60.8 °F 53.6 °F 77% 30.13 in 10.0 mi ESE 8.1 mph - N/A   Overcast
7:15 PM 60.8 °F 53.6 °F 77% 30.13 in 10.0 mi East 8.1 mph - N/A   Overcast
7:36 PM 60.8 °F 53.6 °F 77% 30.12 in 10.0 mi East 9.2 mph - N/A   Overcast
7:57 PM 59.0 °F 53.6 °F 82% 30.14 in 10.0 mi East 6.9 mph - N/A   Overcast
8:18 PM 59.0 °F 53.6 °F 82% 30.13 in 10.0 mi ENE 5.8 mph - N/A   Overcast
8:39 PM 59.0 °F 53.6 °F 82% 30.13 in 10.0 mi East 10.4 mph - N/A   Overcast
9:00 PM 59.0 °F 53.6 °F 82% 30.14 in 10.0 mi ESE 8.1 mph - N/A   Overcast
10:27 PM 55.4 °F 51.8 °F 88% 30.15 in 10.0 mi ESE 8.1 mph - N/A   Overcast
10:48 PM 55.4 °F 51.8 °F 88% 30.15 in 10.0 mi ESE 8.1 mph - N/A   Overcast
11:09 PM 55.4 °F 51.8 °F 88% 30.16 in 10.0 mi SE 6.9 mph - N/A   Overcast
11:30 PM 55.4 °F 51.8 °F 88% 30.16 in 10.0 mi ESE 5.8 mph - N/A   Overcast
11:51 PM 55.4 °F 51.8 °F 88% 30.16 in 10.0 mi East 4.6 mph - N/A   Overcast